CST,Max TemperatureF,Mean TemperatureF,Min TemperatureF,Max Dew PointF,MeanDew PointF,Min DewpointF,Max Humidity, Mean Humidity, Min Humidity, Max Sea Level PressureIn, Mean Sea Level PressureIn, Min Sea Level PressureIn, Max VisibilityMiles, Mean VisibilityMiles, Min VisibilityMiles, Max Wind SpeedMPH, Mean Wind SpeedMPH, Max Gust SpeedMPH,PrecipitationIn, CloudCover, Events, WindDirDegrees
2012-12-1,64,58,51,52,48,45,83,70,56,30.18,30.12,30.05,10,10,9,18,10,26,0.00,6,,169
2012-12-2,67,64,60,61,57,50,90,80,69,30.12,30.08,30.04,10,10,8,21,13,29,0.04,7,Rain,202
2012-12-3,69,65,60,61,58,53,90,79,67,30.10,30.05,30.01,10,10,10,24,13,32,0.00,6,,190
2012-12-4,65,51,37,61,54,36,100,87,73,30.30,30.11,30.00,10,9,2,18,10,25,0.10,6,Rain,299
2012-12-5,61,47,33,41,35,32,100,70,40,30.36,30.29,30.15,10,6,0,13,3,15,0.00,0,Fog,47
2012-12-6,56,45,34,54,46,33,93,77,61,30.14,30.00,29.94,10,8,0,14,4,17,0.00,7,Fog,152
2012-12-7,63,58,53,56,54,52,100,84,67,29.93,29.88,29.82,10,5,0,15,5,17,T,8,Fog,191
2012-12-8,58,54,49,54,49,46,93,85,77,29.97,29.92,29.85,10,8,5,15,8,17,T,8,,18
2012-12-9,64,55,46,63,54,40,100,92,83,29.90,29.81,29.71,10,7,1,28,9,37,0.70,8,Rain-Thunderstorm,188
2012-12-10,46,38,30,38,26,19,82,73,63,30.10,29.95,29.85,10,10,9,18,12,25,T,7,Snow,336
2012-12-11,39,32,24,27,23,19,92,76,59,30.27,30.19,30.12,10,10,8,10,3,14,0.00,1,,235
2012-12-12,47,35,23,30,26,20,92,71,49,30.40,30.34,30.28,10,9,5,7,1,9,0.00,0,,151
2012-12-13,50,37,23,34,27,21,96,71,46,30.40,30.33,30.26,10,10,8,12,4,15,0.00,0,,180
2012-12-14,53,40,26,37,32,25,92,70,48,30.30,30.21,30.04,10,10,8,10,5,14,0.00,0,,168
2012-12-15,60,53,46,57,51,39,93,80,66,30.02,29.83,29.72,10,8,2,24,15,31,0.06,8,Rain,185
2012-12-16,60,54,47,55,52,46,100,84,67,29.79,29.73,29.66,10,5,0,13,4,16,0.00,4,Fog,207
2012-12-17,53,47,41,52,45,36,100,88,76,29.83,29.70,29.63,10,4,0,14,6,17,0.00,8,Fog,300
2012-12-18,55,43,30,44,37,29,100,83,66,29.90,29.85,29.78,10,8,0,21,7,28,0.00,1,Fog,212
2012-12-19,60,46,32,51,39,30,100,79,57,29.99,29.88,29.59,10,6,0,24,9,31,0.00,4,Fog,101
2012-12-20,63,47,31,56,39,19,86,71,55,30.01,29.60,29.35,10,9,2,39,24,49,0.36,6,Rain-Thunderstorm,237
2012-12-21,44,34,24,20,15,11,69,49,29,30.32,30.21,30.03,10,10,10,26,12,32,0.00,0,,302
2012-12-22,46,33,20,31,22,16,84,62,40,30.35,30.21,30.04,10,10,10,14,5,17,0.00,0,,175
2012-12-23,57,45,33,47,41,31,89,72,54,30.03,29.93,29.83,10,10,7,13,6,15,0.00,4,,188
2012-12-24,50,40,29,48,39,23,100,77,53,30.11,29.90,29.78,10,4,0,17,9,22,0.00,5,Fog,351
2012-12-25,37,32,27,28,25,21,82,73,64,30.19,30.03,29.76,10,7,1,32,18,43,T,7,Snow,29
2012-12-26,33,32,30,29,26,22,92,78,64,30.18,29.88,29.71,10,4,0,33,19,41,0.11,8,Fog-Snow,345
2012-12-27,36,32,27,26,24,22,85,75,64,30.24,30.17,30.10,10,10,9,10,3,13,0.00,4,,141
2012-12-28,38,34,30,32,30,26,100,88,76,30.09,29.92,29.85,10,4,1,12,4,15,0.26,8,Snow,349
2012-12-29,33,23,13,31,25,12,92,82,72,30.40,30.15,29.91,10,6,2,22,9,30,T,6,Snow,298
2012-12-30,33,22,10,27,15,8,100,83,66,30.53,30.43,30.33,10,5,0,10,3,13,0.00,2,Fog,186
2012-12-31,36,34,31,34,31,27,100,88,75,30.32,30.16,30.07,10,5,1,12,4,15,0.08,7,Rain-Snow,180